User: anonymous   Login
Location: Feydey
(46.3431°N, 7.0106°E)
Time: 09:46:47
(UTC+00:00)
Language:

SL-4 R/B - Orbit

View from above orbital plane
View from above orbital plane
View from above satellite
View from above satellite

Ground track
Ground track

The orbit data is extracted from the following two-line orbital elements,

1 39679U 14021B   21261.09463339  .00000939  00000-0  62443-4 0  9995
2 39679  51.6147 142.5576 0170178  92.4813 269.5651 15.07145153408346
Epoch (UTC): 18 September 2021 02:16:16
Eccentricity: 0.0170178
inclination: 51.6147°
perigee height: 427 km
apogee height: 663 km
right ascension of ascending node: 142.5576°
argument of perigee: 92.4813°
revolutions per day: 15.07145153
mean anomaly at epoch: 269.5651°
orbit number at epoch: 40834

The dashed part of the orbit path shows where the satellite is in the earth's shadow,  

DLR